Weather History for Jackson, TN

Change the Weather History Date:

Thursday, February 14, 2013

  Actual Average Record
Temperature  
Mean Temperature 48 °F 42 °F  
Max Temperature 62 °F 53 °F 76 °F (1949)
Min Temperature 34 °F 32 °F 11 °F (1971)
Degree Days  
Heating Degree Days 17 23  
Month to date heating degree days 289 343  
Since 1 July heating degree days 2358 2592  
Cooling Degree Days 0 0  
Month to date cooling degree days 0 0  
Year to date cooling degree days 4 0  
Moisture  
Dew Point 33 °F    
Average Humidity 60    
Maximum Humidity 92    
Minimum Humidity 27    
Precipitation  
Precipitation 0.01 in 0.15 in 3.83 in (1989)
Month to date precipitation 1.43 2.10  
Year to date precipitation 9.72 6.17  
Snow  
Snow 0.00 in 0.10 in 1.00 in (2010)
Month to date snowfall 0.1 1.0  
Since 1 July snowfall 1.4 3.6  
Snow Depth 0.00 in    
Sea Level Pressure  
Sea Level Pressure 30.02 in    
Wind  
Wind Speed 9 mph (SW)    
Max Wind Speed 17 mph    
Max Gust Speed 22 mph    
Visibility 10 miles    
Events      
T = Trace of Precipitation, MM = Missing Value Source: NWS Daily Summary

Daily Weather History Graph

Daily Weather History Graph

Search for Another Location

Airport:

Trip Planner

Search our weather history database for the weather conditions in past years. The results will help you decide how hot, cold, wet, or windy it might be!

Date:

Astronomy

Feb. 14, 2013 Rise Set
Actual Time 6:43 AM CST 5:36 PM CST
Civil Twilight 6:17 AM CST 6:03 PM CST
Nautical Twilight 5:47 AM CST 6:33 PM CST
Astronomical Twilight 5:17 AM CST 7:02 PM CST
Moon 8:56 AM CST (2/14) 10:26 PM CST (2/14)
Length of Visible Light 11h 46m
Length of Day
10h 53m
Waxing Crescent, 22% of the Moon is Illuminated
Feb 14
Waxing Crescent
Feb 17
First Quarter
Feb 25
Full
Mar 4
Last Quarter
Mar 11
New

Hourly Weather History & Observations

Time (CST) Temp. Windchill Dew Point Humidity Pressure Visibility Wind Dir Wind Speed Gust Speed Precip Events Conditions
12:53 AM 37.0 °F 29.8 °F 34.0 °F 89% 30.02 in 10.0 mi SSW 10.4 mph - N/A   Clear
1:53 AM 36.0 °F 28.5 °F 34.0 °F 93% 30.02 in 10.0 mi SSW 10.4 mph - N/A   Clear
2:53 AM 36.0 °F 28.5 °F 33.1 °F 89% 30.01 in 10.0 mi SSW 10.4 mph - N/A   Clear
3:53 AM 36.0 °F 28.5 °F 33.1 °F 89% 30.01 in 10.0 mi SSW 10.4 mph - N/A   Clear
4:53 AM 35.1 °F 28.6 °F 33.1 °F 92% 30.01 in 10.0 mi SSW 8.1 mph - N/A   Clear
6:53 AM 35.1 °F 28.6 °F 33.1 °F 92% 30.01 in 10.0 mi SSW 8.1 mph - N/A   Clear
7:53 AM 39.0 °F 31.8 °F 36.0 °F 89% 30.04 in 10.0 mi SSW 11.5 mph - N/A   Clear
8:53 AM 44.1 °F 38.6 °F 37.9 °F 79% 30.05 in 10.0 mi SW 10.4 mph - 0.01 in   Clear
9:53 AM 50.0 °F - 39.0 °F 66% 30.03 in 10.0 mi SW 11.5 mph - N/A   Clear
10:53 AM 54.0 °F - 37.0 °F 53% 30.03 in 10.0 mi WSW 13.8 mph - N/A   Clear
11:53 AM 57.9 °F - 36.0 °F 44% 30.02 in 10.0 mi WSW 13.8 mph 17.3 mph N/A   Clear
12:53 PM 60.1 °F - 35.1 °F 39% 30.00 in 10.0 mi West 10.4 mph 17.3 mph N/A   Clear
1:53 PM 61.0 °F - 32.0 °F 34% 29.99 in 10.0 mi WSW 12.7 mph 20.7 mph N/A   Clear
2:53 PM 62.1 °F - 28.9 °F 29% 29.99 in 10.0 mi WSW 15.0 mph - N/A   Clear
3:53 PM 61.0 °F - 28.0 °F 29% 29.99 in 10.0 mi WSW 10.4 mph - N/A   Clear
4:53 PM 57.9 °F - 28.9 °F 33% 30.00 in 10.0 mi WSW 9.2 mph - N/A   Clear
5:53 PM 52.0 °F - 30.0 °F 43% 30.01 in 10.0 mi SW 3.5 mph - N/A   Clear
6:53 PM 48.0 °F - 30.9 °F 52% 30.03 in 10.0 mi WSW 5.8 mph - N/A   Clear
7:53 PM 46.0 °F 43.1 °F 32.0 °F 58% 30.04 in 10.0 mi SW 5.8 mph - N/A   Clear
8:53 PM 39.9 °F 36.7 °F 32.0 °F 73% 30.04 in 10.0 mi SSW 4.6 mph - N/A   Clear
9:53 PM 39.0 °F 34.8 °F 33.1 °F 79% 30.04 in 10.0 mi SSW 5.8 mph - N/A   Partly Cloudy
10:53 PM 41.0 °F 35.8 °F 33.1 °F 73% 30.04 in 10.0 mi SSW 8.1 mph - N/A   Clear
11:53 PM 42.1 °F 36.6 °F 35.1 °F 76% 30.04 in 10.0 mi SSW 9.2 mph - N/A   Clear